Location: Newark
(50.0306°N, 2.3272°E)
Time: 15:08:56
(UTC+00:00)

Vanguard 1 Rocket - Pass Details

Date: 20 December 2019
Orbit: 651 x 4226 km, 34.3° (Epoch: 28 January)

Event Time Altitude Azimuth Distance (km) Brightness Sun altitude
Rises 16:24:43 0° 209° (SSW) 8,300 13.4 -5.4°
Reaches altitude 10° 16:31:35 10° 200° (SSW) 7,408 12.8 -6.4°
Maximum altitude 16:51:44 31° 149° (SSE) 5,354 11.2 -9.3°
Drops below altitude 10° 17:07:12 10° 97° (E) 5,762 10.9 -11.5°
Enters shadow 17:08:43 - 93° (E) 5,935 11.0 -11.7°
Sets 17:11:32 0° 88° (E) 6,317 - -12.2°
